COSMOS 2093

Satellite information

Favourite Embed

Satellite Type and Status

PAYLOADIN ORBIT

Key statistics

Satellite COSMOS 2093 at a glance.

Uptime

12866

Days in orbit

Revolutions

≈ 12.6

Per day

Orbit

LEO

Low Earth Orbit

Inclination

82.6

Latest

Satellite identification and parameters

Extended collection of information and parameters for COSMOS 2093.

Object identification

Identified? True

Debris? False

Object name: COSMOS 2093

International designator: 1990-070D

Object number (NORAD): 20738

Object ID (CCSDS): 20738

Country: COMMONWEALTH OF INDEPENDENT STATES (CIS)

Current information (Y/N): Y

RCS size: LARGE

Orbital parameters

Period: 113.916 minutes

Inclination: 82.5712 deg

SMA: 7784.256 km

Apoapsis: 1412.305 km

Periapsis: 1399.937 km

RAAN: 89.3071 deg

Eccentricy: 0.00079441

Argument of periapsis: 273.8189 deg

Mean anomaly: 147.6657 deg

Mean motion: 12.64087298 rev/day

Mean motion (dot): 0.0000004 rev/day2

B* drag term: 0.00016255182 1/REarth

Two-line elements (TLE)

Creation date: Oct. 28, 2025, 7:11 p.m.

Reference frame: TEME

Reference center: EARTH

Epoch: Oct. 28, 2025, 11:49 a.m. UTC

TLE line 0: 0 COSMOS 2093

TLE line 1: 1 20738U 90070D 25301.49255500 .00000040 00000-0 16255-3 0 9993

TLE line 2: 2 20738 82.5712 89.3071 0007944 273.8189 147.6657 12.64087298625104

Live tracking on map

Real-time ground track for satellite COSMOS 2093.

In-orbit conjunctions

There are no conjunctions computed for COSMOS 2093, at the moment. Check back to stay up to date, as we update our databases every day.

Go to all conjunctions

Associated space launch

Second generation store-dump military communications satellite

COSMOS 2093 was lifted into orbit during the mission ‘Tsiklon-3 | Strela-3 49 to 54’, on board a Tsiklon-3 space rocket.

The launch took place on Aug. 8, 1990, 4:15 a.m. from 32/2.

For more information about the launch, click the button.

Launch to space Tsiklon-3 | Strela-3 49 to 54
Tsiklon-3 | Strela-3 49 to 54

Agency: N/A

Status: Launch Successful

Launch date: Aug. 8, 1990, 4:15 a.m. UTC

Rocket: Tsiklon-3

Launch pad: 32/2

Location: Plesetsk Cosmodrome, Russian Federation

...

Latest news about this satellite

There are no fresh news available about this satellite. Check back as we update our databases every day.


Newsletter sign-up

Weekly statistics, charts and insights to help you stay on top of the space industry.